Hourly Data Report for June 26, 2012

All times are specified in Local Standard Time (LST). Add 1 hour to adjust for Daylight Saving Time where and when it is observed.

SAINT JOHN A
NEW BRUNSWICK

45°18'58.000" N
65°53'24.000" W
108.80 m
8104901
71609
YSJ

Download Data

Hourly Data (June 2012)
Hourly Data Report for June 26, 2012
Temp Definition
°C
Dew Point Temp Definition
°C
Rel Hum Definition
%
Wind Dir Definition
10's deg

Wind Spd Definition
km/h
Visibility Definition
km
Stn Press Definition
kPa
Hmdx Definition


Wind Chill Definition


Weather Definition


TIME
00:00 Legend Double Dagger 16.4 14.6 89 12 17 10.0 99.71     LegendNANA
01:00 Legend Double Dagger 16.2 14.6 90 12 20 10.0 99.68     LegendNANA
02:00 Legend Double Dagger 15.4 14.6 95 11 15 10.0 99.63     Cloudy
03:00 Legend Double Dagger 15.2 14.7 97 11 20 10.0 99.58     LegendNANA
04:00 Legend Double Dagger 15.3 15.0 98 9 18 10.0 99.52     Rain Showers
05:00 Legend Double Dagger 15.8 15.5 98 10 20 10.0 99.50     Rain Showers
06:00 Legend Double Dagger 16.1 15.8 98 10 20 6.4 99.43     Fog
07:00 Legend Double Dagger 16.1 15.9 99 10 24 4.8 99.40     Rain Showers,Fog
08:00 Legend Double Dagger 16.6 16.3 98 8 24 9.7 99.27     Rain Showers,Fog
09:00 Legend Double Dagger 16.6 16.3 98 9 21 9.7 99.19     Rain Showers,Fog
10:00 Legend Double Dagger 16.5 16.2 98 10 29 6.4 99.11     Moderate Rain Showers,Fog
11:00 Legend Double Dagger 16.4 16.1 98 10 16 6.4 99.01     Moderate Rain Showers,Fog
12:00 Legend Double Dagger 17.1 16.8 98 10 30 9.7 98.92     Moderate Rain Showers,Fog
13:00 Legend Double Dagger 16.9 16.6 98 14 23 9.7 98.90     Rain Showers,Fog
14:00 Legend Double Dagger 16.9 16.4 97 12 27 9.7 98.87     Rain Showers,Fog
15:00 Legend Double Dagger 16.5 16.2 98 12 22 9.7 98.82     Rain Showers,Fog
16:00 Legend Double Dagger 16.5 16.0 97 10 20 9.7 98.74     Rain Showers,Fog
17:00 Legend Double Dagger 16.9 16.4 97 10 20 9.7 98.64     Rain Showers,Fog
18:00 Legend Double Dagger 16.6 16.3 98 9 14 10.0 98.53     Rain Showers
19:00 Legend Double Dagger 16.6 16.4 99 16 9 10.0 98.56     Rain Showers
20:00 Legend Double Dagger 16.1 15.8 98 18 20 10.0 98.60     Rain Showers
21:00 Legend Double Dagger 14.1 14.1 100 19 23 0.8 98.65     Fog
22:00 Legend Double Dagger 12.7 12.7 100 19 24 0.8 98.71     Fog
23:00 Legend Double Dagger 12.6 12.6 100 18 17 0.8 98.78     Fog

Notes on Data Quality.

Legend

  • E = Estimated
  • M = Missing
  • NA = Not Available
  • ‡ = Partner data that is not subject to review by the National Climate Archives
Date modified: